This demonstration page uses our WeatherBlox Daily Observations layout. Learn more.

Left ArrowRight Arrow

38.20091, -84.87328

Hourly Observations for March 3, 2022

Temp ( °F °C ) Dew Point ( °F °C ) Humidity (%) Winds ( mph kmh ) Pressure ( in mb ) Visibility ( mi km ) Precip ( " mm )
12:53 am 00:53 Clear 57 13.9 39 3.9 51 51 SW 7 11 29.96 1015 10 16 0.00 0.00
1:53 am 01:53 Clear 58 14.4 37 2.8 46 46 W 5 7 29.98 1015 10 16 0.00 0.00
2:53 am 02:53 Clear 54 12.2 37 2.8 53 53 WSW 6 9 29.99 1016 10 16 0.00 0.00
3:53 am 03:53 Clear 53 11.7 36 2.2 52 52 WSW 6 9 30.00 1016 10 16 0.00 0.00
4:53 am 04:53 Clear 52 11.1 36 2.2 55 55 N 7 11 30.04 1017 10 16 0.00 0.00
5:53 am 05:53 Clear 52 11.1 41 5 66 66 N 7 11 30.06 1018 10 16 0.00 0.00
6:53 am 06:53 Clear 48 8.9 37 2.8 66 66 NNE 7 11 30.12 1020 10 16 0.00 0.00
7:53 am 07:53 Sunny 47 8.3 37 2.8 69 69 NNE 6 9 30.14 1021 10 16 0.00 0.00
8:53 am 08:53 Sunny 48 8.9 37 2.8 66 66 NNE 10 17 30.18 1022 10 16 0.00 0.00
9:53 am 09:53 Sunny 50 10 38 3.3 63 63 NNE 8 13 30.21 1023 10 16 0.00 0.00
10:53 am 10:53 Sunny 51 10.6 37 2.8 59 59 N 10 17 30.24 1024 10 16 0.00 0.00
11:53 am 11:53 Mostly Sunny 52 11.1 37 2.8 57 57 NNW 10 17 30.26 1025 10 16 0.00 0.00
12:53 pm 12:53 Partly Cloudy 52 11.1 36 2.2 55 55 NNW 9 15 30.26 1025 10 16 0.00 0.00
1:53 pm 13:53 Mostly Cloudy 53 11.7 36 2.2 52 52 NNW 7 11 30.25 1024 10 16 0.00 0.00
2:53 pm 14:53 Sunny 52 11.1 33 0.6 49 49 NNE 8 13 30.24 1024 10 16 0.00 0.00
3:53 pm 15:53 Partly Cloudy 53 11.7 32 0 45 45 NNE 8 13 30.26 1025 10 16 0.00 0.00
4:53 pm 16:53 Mostly Sunny 54 12.2 32 0 43 43 N 9 15 30.27 1025 10 16 0.00 0.00
5:53 pm 17:53 Sunny 50 10 32 0 50 50 NE 8 13 30.29 1026 10 16 0.00 0.00
6:53 pm 18:53 Clear 46 7.8 29 -1.7 51 51 NNE 10 17 30.31 1027 10 16 0.00 0.00
7:53 pm 19:53 Clear 45 7.2 29 -1.7 54 54 NNE 10 17 30.33 1027 10 16 0.00 0.00
8:53 pm 20:53 Clear 42 5.6 26 -3.3 53 53 ENE 9 15 30.34 1028 10 16 0.00 0.00
9:53 pm 21:53 Clear 41 5 24 -4.4 51 51 NE 7 11 30.36 1028 10 16 0.00 0.00
10:53 pm 22:53 Clear 40 4.4 24 -4.4 53 53 NE 7 11 30.37 1028 10 16 0.00 0.00
11:53 pm 23:53 Clear 39 3.9 22 -5.6 50 50 NE 9 15 30.36 1028 10 16 0.00 0.00

Powered by AerisWeather